| time (UTC) | temp C | wind direction | speed KPH | gust KPH | rain 1hr cm | rain 24hr cm | rain mn cm | humidity % | barometer mb |
| 20260510021515 | 12 | 196 | 4.8 | 11.3 | 0.00 | 0.00 | 0.00 | 81 | 1030.4 |
| 20260510011530 | 11 | 273 | 1.6 | 8.0 | 0.00 | 0.00 | 0.00 | 81 | 1031.2 |
| 20260510001513 | 11 | 224 | 0.0 | 8.0 | 0.00 | 0.00 | 0.00 | 85 | 1031.1 |
| 20260510000004 | 10 | 207 | 0.0 | 6.4 | 0.00 | 0.00 | 0.00 | 88 | 1031.1 |
| 20260509234608 | 10 | 274 | 0.0 | 6.4 | 0.00 | 0.00 | 0.00 | 90 | 1031.1 |
| 20260509233011 | 10 | 269 | 1.6 | 4.8 | 0.00 | 0.00 | 0.00 | 92 | 1031.2 |
| 20260509231506 | 10 | 269 | 1.6 | 4.8 | 0.00 | 0.00 | 0.00 | 92 | 1031.1 |
| 20260509230012 | 10 | 269 | 0.0 | 4.8 | 0.00 | 0.00 | 0.00 | 92 | 1031.1 |
| 20260509224605 | 10 | 269 | 0.0 | 4.8 | 0.00 | 0.03 | 0.00 | 91 | 1031.1 |
| 20260509223006 | 10 | 269 | 0.0 | 4.8 | 0.00 | 0.03 | 0.00 | 92 | 1031.0 |
| 20260509221605 | 9 | 269 | 1.6 | 4.8 | 0.00 | 0.03 | 0.00 | 91 | 1030.8 |
| 20260509220006 | 9 | 269 | 0.0 | 6.4 | 0.00 | 0.03 | 0.00 | 91 | 1030.6 |
| 20260509213011 | 9 | 269 | 3.2 | 4.8 | 0.00 | 0.03 | 0.00 | 91 | 1030.0 |
| 20260509211504 | 9 | 269 | 1.6 | 6.4 | 0.00 | 0.03 | 0.00 | 91 | 1029.8 |
| 20260509210012 | 9 | 269 | 3.2 | 6.4 | 0.00 | 0.03 | 0.00 | 91 | 1029.7 |
| 20260509204508 | 9 | 269 | 1.6 | 4.8 | 0.00 | 0.05 | 0.00 | 91 | 1029.6 |
| 20260509203007 | 9 | 269 | 1.6 | 4.8 | 0.00 | 0.05 | 0.00 | 91 | 1029.5 |
| 20260509201605 | 10 | 286 | 1.6 | 8.0 | 0.00 | 0.05 | 0.00 | 91 | 1029.4 |
| 20260509200012 | 10 | 226 | 4.8 | 11.3 | 0.00 | 0.05 | 0.00 | 91 | 1029.3 |
| 20260509194604 | 10 | 240 | 3.2 | 11.3 | 0.00 | 0.05 | 0.00 | 90 | 1029.2 |
| 20260509193011 | 10 | 218 | 4.8 | 8.0 | 0.00 | 0.05 | 0.00 | 90 | 1029.1 |
| 20260509191504 | 10 | 23 | 3.2 | 11.3 | 0.00 | 0.05 | 0.00 | 89 | 1028.9 |
| 20260509190005 | 10 | 292 | 0.0 | 3.2 | 0.00 | 0.05 | 0.00 | 89 | 1028.7 |
| 20260509184504 | 10 | 292 | 0.0 | 4.8 | 0.00 | 0.05 | 0.00 | 88 | 1028.4 |
| 20260509183004 | 10 | 292 | 1.6 | 3.2 | 0.00 | 0.05 | 0.00 | 89 | 1028.3 |
| 20260509181606 | 10 | 292 | 1.6 | 4.8 | 0.00 | 0.05 | 0.00 | 89 | 1028.1 |
| 20260509180012 | 10 | 292 | 1.6 | 6.4 | 0.00 | 0.05 | 0.00 | 89 | 1028.1 |
| 20260509174506 | 10 | 277 | 3.2 | 11.3 | 0.00 | 0.05 | 0.00 | 89 | 1028.1 |
| 20260509173121 | 10 | 315 | 3.2 | 8.0 | 0.00 | 0.05 | 0.00 | 89 | 1028.0 |
| 20260509171509 | 10 | 334 | 4.8 | 9.7 | 0.00 | 0.05 | 0.00 | 89 | 1028.1 |
| 20260509170011 | 10 | 323 | 3.2 | 8.0 | 0.00 | 0.05 | 0.00 | 89 | 1028.1 |
| 20260509164504 | 10 | 291 | 3.2 | 8.0 | 0.00 | 0.05 | 0.00 | 89 | 1028.2 |
| 20260509163013 | 10 | 323 | 4.8 | 8.0 | 0.00 | 0.05 | 0.00 | 89 | 1028.2 |
| 20260509161606 | 10 | 291 | 1.6 | 6.4 | 0.00 | 0.05 | 0.00 | 89 | 1028.2 |
| 20260509160005 | 10 | 300 | 4.8 | 12.9 | 0.00 | 0.05 | 0.00 | 89 | 1028.2 |
| 20260509154620 | 10 | 333 | 4.8 | 8.0 | 0.00 | 0.05 | 0.00 | 89 | 1028.2 |
| 20260509153009 | 10 | 282 | 4.8 | 9.7 | 0.00 | 0.05 | 0.00 | 90 | 1028.3 |
| 20260509151546 | 10 | 307 | 3.2 | 8.0 | 0.00 | 0.05 | 0.00 | 90 | 1028.3 |
| 20260509150017 | 10 | 293 | 3.2 | 8.0 | 0.00 | 0.05 | 0.00 | 90 | 1028.4 |
| 20260509144613 | 10 | 286 | 3.2 | 8.0 | 0.00 | 0.05 | 0.00 | 90 | 1028.3 |
| 20260509143010 | 10 | 314 | 3.2 | 11.3 | 0.00 | 0.05 | 0.00 | 90 | 1028.3 |
| 20260509141603 | 10 | 339 | 4.8 | 8.0 | 0.00 | 0.05 | 0.00 | 91 | 1028.2 |
| 20260509140005 | 10 | 339 | 1.6 | 3.2 | 0.00 | 0.05 | 0.00 | 91 | 1028.3 |
| 20260509134603 | 11 | 339 | 1.6 | 6.4 | 0.00 | 0.05 | 0.00 | 90 | 1028.3 |
| 20260509133004 | 10 | 339 | 1.6 | 8.0 | 0.00 | 0.05 | 0.00 | 90 | 1028.4 |
| 20260509131603 | 11 | 317 | 1.6 | 6.4 | 0.00 | 0.05 | 0.00 | 90 | 1028.4 |
| 20260509130021 | 11 | 317 | 1.6 | 3.2 | 0.00 | 0.05 | 0.00 | 90 | 1028.5 |
| 20260509124504 | 11 | 317 | 1.6 | 3.2 | 0.00 | 0.05 | 0.05 | 91 | 1028.4 |
| 20260509123004 | 11 | 317 | 1.6 | 3.2 | 0.00 | 0.05 | 0.05 | 91 | 1028.4 |
| 20260509121617 | 11 | 317 | 0.0 | 3.2 | 0.00 | 0.05 | 0.05 | 90 | 1028.5 |
| 20260509120012 | 11 | 317 | 1.6 | 4.8 | 0.00 | 0.05 | 0.05 | 90 | 1028.5 |
| 20260509114604 | 11 | 240 | 1.6 | 4.8 | 0.00 | 0.05 | 0.05 | 90 | 1028.4 |
| 20260509113003 | 11 | 340 | 1.6 | 6.4 | 0.00 | 0.05 | 0.05 | 90 | 1028.2 |
| 20260509111608 | 11 | 262 | 1.6 | 6.4 | 0.00 | 0.05 | 0.05 | 90 | 1028.2 |
| 20260509110004 | 11 | 301 | 1.6 | 6.4 | 0.00 | 0.08 | 0.05 | 90 | 1028.1 |
| 20260509104607 | 11 | 286 | 0.0 | 4.8 | 0.00 | 0.08 | 0.05 | 90 | 1028.1 |
| 20260509103010 | 11 | 265 | 1.6 | 4.8 | 0.00 | 0.08 | 0.05 | 90 | 1028.1 |
| 20260509101502 | 11 | 288 | 1.6 | 4.8 | 0.00 | 0.08 | 0.05 | 89 | 1028.1 |
| 20260509100007 | 11 | 235 | 1.6 | 8.0 | 0.00 | 0.08 | 0.05 | 88 | 1027.9 |
| 20260509094603 | 11 | 294 | 1.6 | 6.4 | 0.00 | 0.08 | 0.05 | 87 | 1027.9 |
| 20260509093009 | 11 | 240 | 3.2 | 11.3 | 0.00 | 0.08 | 0.05 | 87 | 1027.9 |
| 20260509091503 | 11 | 290 | 1.6 | 11.3 | 0.00 | 0.08 | 0.05 | 87 | 1027.8 |
| 20260509090012 | 11 | 298 | 1.6 | 6.4 | 0.00 | 0.08 | 0.05 | 86 | 1027.5 |
| 20260509084503 | 11 | 271 | 3.2 | 9.7 | 0.00 | 0.08 | 0.05 | 87 | 1027.6 |
| 20260509083004 | 11 | 197 | 3.2 | 9.7 | 0.00 | 0.08 | 0.05 | 87 | 1027.4 |
| 20260509081607 | 11 | 308 | 3.2 | 4.8 | 0.00 | 0.08 | 0.05 | 87 | 1027.4 |
| 20260509080010 | 11 | 308 | 1.6 | 4.8 | 0.00 | 0.08 | 0.05 | 87 | 1027.3 |
| 20260509074603 | 11 | 308 | 1.6 | 4.8 | 0.00 | 0.08 | 0.05 | 86 | 1027.1 |
| 20260509073010 | 12 | 298 | 1.6 | 4.8 | 0.00 | 0.08 | 0.05 | 86 | 1027.0 |
| 20260509071604 | 12 | 250 | 1.6 | 4.8 | 0.00 | 0.08 | 0.05 | 85 | 1027.0 |
| 20260509070004 | 12 | 236 | 1.6 | 4.8 | 0.00 | 0.08 | 0.05 | 85 | 1026.9 |
| 20260509064607 | 12 | 269 | 0.0 | 4.8 | 0.00 | 0.08 | 0.05 | 85 | 1026.8 |
| 20260509063012 | 12 | 265 | 3.2 | 11.3 | 0.00 | 0.08 | 0.05 | 85 | 1026.7 |
| 20260509061515 | 12 | 292 | 1.6 | 8.0 | 0.00 | 0.08 | 0.05 | 84 | 1026.7 |
| 20260509060006 | 12 | 286 | 1.6 | 6.4 | 0.00 | 0.10 | 0.05 | 85 | 1026.6 |
| 20260509054614 | 12 | 245 | 4.8 | 8.0 | 0.00 | 0.10 | 0.05 | 84 | 1026.6 |
| 20260509053003 | 12 | 331 | 0.0 | 4.8 | 0.00 | 0.10 | 0.05 | 85 | 1026.5 |
| 20260509051605 | 12 | 331 | 1.6 | 6.4 | 0.00 | 0.10 | 0.05 | 85 | 1026.6 |
| 20260509050003 | 13 | 313 | 4.8 | 9.7 | 0.00 | 0.13 | 0.05 | 85 | 1026.6 |
| 20260509044602 | 12 | 194 | 4.8 | 12.9 | 0.00 | 0.13 | 0.05 | 85 | 1026.6 |
| 20260509043003 | 12 | 196 | 6.4 | 12.9 | 0.00 | 0.13 | 0.05 | 85 | 1026.5 |
| 20260509041606 | 12 | 194 | 6.4 | 14.5 | 0.00 | 0.13 | 0.05 | 84 | 1026.5 |
| 20260509040002 | 12 | 214 | 3.2 | 8.0 | 0.00 | 0.13 | 0.05 | 84 | 1026.6 |
| 20260509034607 | 12 | 345 | 3.2 | 8.0 | 0.00 | 0.13 | 0.05 | 85 | 1026.5 |
| 20260509033003 | 12 | 288 | 1.6 | 11.3 | 0.00 | 0.13 | 0.05 | 87 | 1026.6 |
| 20260509031607 | 12 | 225 | 3.2 | 8.0 | 0.00 | 0.13 | 0.05 | 86 | 1026.8 |
| 20260509030011 | 12 | 279 | 4.8 | 11.3 | 0.00 | 0.13 | 0.05 | 86 | 1027.1 |
| 20260509024603 | 12 | 278 | 8.0 | 17.7 | 0.00 | 0.15 | 0.05 | 86 | 1027.2 |
| 20260509023002 | 12 | 201 | 4.8 | 12.9 | 0.00 | 0.15 | 0.05 | 88 | 1027.2 |